Regional Weather Roundup
Issued by NWS

Home | Current Version | Previous Version | Text Only | Print | Product List | Glossary Off
Versions: 1 2 3 4 5 6 7 8 9 10 11 12 13 14 15 16 17 18 19 20 21 22 23 24 25 26 27 28 29 30 31 32 33 34 35 36 37 38 39 40 41 42 43 44 45 46 47 48 49 50

000
ASUS43 KDTX 111501
RWRMI
MICHIGAN HOURLY REGIONAL WEATHER ROUNDUP
NATIONAL WEATHER SERVICE DETROIT/PONTIAC MI
1000 AM EST THU FEB 11 2016

NOTE: "FAIR" INDICATES FEW OR NO CLOUDS BELOW 12,000 FEET WITH NO
SIGNIFICANT WEATHER AND/OR OBSTRUCTION TO VISIBILITY.

MIZ047>049-052>055-059>063-066>070-074>076-081>083-111600-
SOUTHEAST LOWER MICHIGAN

CITY           SKY/WX    TMP DP  RH WIND       PRES   REMARKS
ADRIAN         SUNNY     17   3  54 NW12      30.20R WCI   4
ALMA           CLOUDY    16  10  76 NW9G16    30.19R WCI   4
ANN ARBOR      SUNNY     15   4  61 NW12G20   30.17R WCI   2
BAD AXE        CLOUDY     9   2  74 NW18      30.14R WCI  -9
CARO           CLOUDY    10   1  67 NW13      30.16R WCI  -5
DETROIT CITY   PTSUNNY   14   5  67 NW10      30.17R WCI   1
DETROIT        PTSUNNY   16   5  62 NW12      30.19R WCI   3
FLINT          MOSUNNY   15   4  61 NW10      30.17R WCI   2
GROSSE ILE     CLOUDY    18   7  62 NW12G17   30.18R WCI   5
HILLSDALE      PTSUNNY   15   4  62 NW10      30.17R WCI   2
HOWELL         PTSUNNY   14   6  72 NW8       30.16R WCI   3

CITY           SKY/WX    TMP DP  RH WIND       PRES   REMARKS
JACKSON        CLOUDY    16   2  54 NW12      30.18R WCI   3
LAMBERTVILLE   MOSUNNY   18   6  61 W10G17    30.22R WCI   6
LANSING        MOSUNNY   16   5  62 NW12G24   30.18R WCI   3
LAPEER         CLOUDY    12   5  74 NW8       30.15R WCI   0
MASON          MOSUNNY   16   4  58 NW16      30.17R WCI   1
MONROE         SUNNY     17   6  62 NW9       30.19R WCI   5
MT. CLEMENS    MOSUNNY   13   5  69 NW12      30.15R WCI   0
PONTIAC        PTSUNNY   12   5  73 NW13      30.14R WCI  -3
PORT HOPE        N/A     11   5  77 NW18G26   30.11R WCI  -7
PORT HURON     PTSUNNY   12   1  62 NW15G25   30.15R WCI  -4
TRI CITIES     CLOUDY    14   4  64 N8        30.19R WCI   3
MIDLAND        CLOUDY    13   3  65 NW8       30.18R WCI   2
TROY           PTSUNNY   15   8  71 NW13      30.18R WCI   1
SAGINAW HB     CLOUDY    14   7  73 N8        30.18R WCI   3
$$
MIZ043>046-050>051-056>058-064>065-071>073-077>080-111600-
SOUTHWEST LOWER MICHIGAN

CITY           SKY/WX    TMP DP  RH WIND       PRES   REMARKS
BATTLE CREEK   SUNNY     16   7  67 W8        30.20R WCI   5
BENTON HARBOR  PTSUNNY   20   6  55 NW7       30.24R WCI  11
BIG RAPIDS     MOSUNNY   15   9  74 NW8       30.16R WCI   5
COLDWATER      CLOUDY    16   6  65 W5        30.20R WCI   9
FREMONT        CLOUDY    18   5  58 N12       30.19S WCI   5
HOLLAND        LGT SNOW  18   9  68 N5G16     30.23R WCI  11
GRAND RAPIDS   PTSUNNY   18   3  52 NW13G22   30.20R WCI   5
IONIA          FAIR      17   6  63 NW10G16   30.18R WCI   4
KALAMAZOO      CLOUDY    15   7  70 W3        30.21R
LUDINGTON      CLOUDY    17   8  68 NW6       30.22R WCI   8
MARSHALL       CLOUDY    17   7  65 W7        30.19R WCI   7
MOUNT PLEASANT CLOUDY    14   7  73 NW3       30.18R
MUSKEGON       CLOUDY    19   8  62 N7        30.23R WCI  10
SOUTH HAVEN    LGT SNOW  16  12  82 E5        30.23R WCI   9
$$
MIZ016>042-111600-
NORTHERN LOWER MICHIGAN

CITY           SKY/WX    TMP DP  RH WIND       PRES   REMARKS
ALPENA         LGT SNOW   6  -2  69 NW13      30.15R WCI -10
BEAVER ISLAND  PTSUNNY   11   3  70 N8        30.17S WCI   0
BELLAIRE       CLOUDY    14   3  62 N7G17     30.19R WCI   4
CADILLAC       CLOUDY    13   6  73 NW8       30.11R WCI   1
CHARLEVOIX     CLOUDY    12   5  74 N14G20    30.20R WCI  -3
FRANKFORT      FLURRIES  17  10  75 N5        30.19S WCI  10
GAYLORD        CLOUDY     6  -1  73 VRB5      30.10R HAZE    WCI  -3
GRAYLING       CLOUDY     8   2  76 CALM      30.12S HAZE
HARBOR SPRINGS SUNNY      8  -1  67 CALM      30.17R
HOUGHTON LAKE  CLOUDY     9   1  70 N6        30.13R WCI  -1
MANISTEE       CLOUDY    18   3  53 NW10      30.20R WCI   6
OSCODA         PTSUNNY    7  -2  65 NW12      30.15R WCI  -8
PELLSTON       SUNNY      6  -2  69 N6        30.18S WCI  -4
ROGERS CITY    LGT SNOW   6   1  78 NW10G22   30.17R WCI  -9
TRAVERSE CITY  FLURRIES  16   6  65 N10       30.17R WCI   4
$$
MIZ007>008-015-111600-
EASTERN UPPER MICHIGAN

CITY           SKY/WX    TMP DP  RH WIND       PRES   REMARKS
KINROSS        CLOUDY    -6  -9  84 CALM      30.16R
MACKINAC ISLAN MOSUNNY    4  -2  77 NW3       30.16S
NEWBERRY       MOSUNNY    3  -1  83 SW5       30.13S WCI  -6
S. S. MARIE    SUNNY     -3 -13  62 NE3       30.16S
$$
MIZ004>006-011>014-085-111600-
CENTRAL UPPER MICHIGAN

CITY           SKY/WX    TMP DP  RH WIND       PRES   REMARKS
MANISTIQUE     LGT SNOW  10   4  76 W5        30.17S VSB 1   WCI   2
ESCANABA       SUNNY     10   0  61 NW13G21   30.20S WCI  -5
MENOMINEE        N/A    N/A N/A N/A MISG        N/A
SAWYER-GWINN   MOSUNNY    7  -2  66 NW9       30.14S WCI  -7
$$
MIZ001>003-009>011-084-111600-
WESTERN UPPER MICHIGAN

CITY           SKY/WX    TMP DP  RH WIND       PRES   REMARKS
IRON MOUNTAIN  MIX PCPN   9  -2  61 NW15      30.16S WCI  -8
HOUGHTON       LGT SNOW   9   1  70 NW16      30.14S WCI  -8
COPPER HARBOR    N/A     11   2  67 N18       30.17S WCI  -7
IRONWOOD       CLOUDY     3   1  92 W8        30.19R WCI -10
$$

ABBREVIATIONS USED IN REMARKS
   TC - TEMPERATURE IN CELSIUS
  WCI - WIND CHILL INDEX
   HX - HEAT INDEX
  VSB - VISIBILITY




USA.gov is the U.S. government's official web portal to all federal, state and local government web resources and services.